Regional Weather Roundup
Issued by NWS Wakefield, VA

Home | Current Version | Previous Version | Text Only | Print | Product List | Glossary On
Versions: 1 2 3 4 5 6 7 8 9 10 11 12 13 14 15 16 17 18 19 20 21 22 23 24 25 26 27 28 29 30 31 32 33 34 35 36 37 38 39 40 41 42 43 44 45 46 47 48 49 50
000
ASUS41 KAKQ 251315
RWRAKQ

REGIONAL WEATHER ROUNDUP
NATIONAL WEATHER SERVICE WAKEFIELD VA
900 AM EDT SAT MAR 25 2017

Note: "fair" indicates few or no clouds below 12,000 feet with no
significant weather and/or obstructions to visibility. * = Denotes
station may not report precipitation (e.g., rain,snow,etc.),
thunder or fog.

VAZ042-051-052>054-056-251400-
NORTHERN VIRGINIA

CITY           SKY/WX    TMP DP  RH WIND       PRES   REMARKS
WASH NATIONAL  CLOUDY    59  49  69 S9        30.21R
DULLES         CLOUDY    59  47  64 S8        30.20R
FORT BELVOIR   MOSUNNY   62  47  59 VRB3      30.20R
QUANTICO       CLOUDY    55  49  80 SW7       30.23R
FREDERICKSBRG* CLOUDY    61  50  65 SW6       30.22R
STAFFORD*      CLOUDY    61  49  64 SW9       30.26R
WARRENTON      CLOUDY    61  46  56 SW6       30.21S
CULPEPER*      CLOUDY    60  49  68 CALM      30.22S
MANASSAS*      CLOUDY    60  49  66 SW6       30.21R
LEESBURG*      CLOUDY    59  52  77 CALM      30.20S
WINCHESTER     MOSUNNY   59  46  63 SW7       30.19S
FRONT ROYAL*   MOSUNNY   63  48  59 S7        30.19R
LURAY*         CLOUDY    61  50  67 SW7       30.21S
$$

VAZ048-049-060>072-079>083-251400-
CENTRAL AND SOUTH CENTRAL VIRGINIA

CITY           SKY/WX    TMP DP  RH WIND       PRES   REMARKS
RICHMOND       CLOUDY    61  50  67 SW13      30.26S
CHESTERFIELD*  FAIR     N/A N/A N/A SW12G17   30.28R
PETERSBURG*    MOSUNNY   60  49  67 SW10      30.28F
HANOVER        CLOUDY    61  47  59 SW10      30.27R
TAPPAHANNOCK*  CLOUDY    61  38  42 SE9       30.25S
QUINTON*       FAIR      59  50  72 MISG      30.26S
CHARLOTTSVILLE CLOUDY    60  48  64 SW7       30.22R
GORDONSVILLE*  PTSUNNY   59  49  68 SW7       30.22S
ORANGE*        CLOUDY    59  46  63 S9        30.23S
LOUISA*        CLOUDY    63  52  67 SW6       30.22S
BUMPASS*       FAIR      59  48  66 SW9G17    30.23S
FARMVILLE*     PTSUNNY   62  51  66 SW12      30.26S
CREWE*         FAIR      62  50  66 SW6G17    30.28S
FORT PICKETT*  FAIR      61  46  57 SW10      30.29S
CHASE CITY*    FAIR      60  49  68 SW6       30.31R
CLARKSVILLE*   FAIR      61  52  72 SW7       30.32R
SOUTH HILL*    MOSUNNY   60  52  74 SW9G17    30.37S
LAWRENCEVILLE* FAIR      60  51  71 MISG      30.30S
EMPORIA*       SUNNY     59  50  72 SW9       30.33R
$$

VAZ088>098-251400-
SOUTHEAST VIRGINIA

CITY           SKY/WX    TMP DP  RH WIND       PRES   REMARKS
NORFOLK        SUNNY     63  51  65 SW16G24   30.29S
VIRGINIA BEACH PTSUNNY   62  50  64 SW18G25   30.29S
NORFOLK NAVAL  MOSUNNY   63  50  62 SW15G25   30.30F
WEST POINT*    CLOUDY    60  48  66 SW6       30.29S
SALUDA*        FAIR      61  51  69 SW7G18    30.26R
NEWPORT NEWS   PTSUNNY   61  51  70 SW15      30.29S
LANGLEY AFB    PTSUNNY   60  51  72 SW20      30.28S
FORT EUSTIS    PTSUNNY   61  51  68 SW9       30.27S
WILLIAMSBURG*  MOSUNNY   63  52  67 SW9G16    30.30R
HR EXEC AP*    FAIR      63  50  63 SW16      30.29F
FRANKLIN*      MOSUNNY   59  51  73 SW6       30.32S
US460-WAKEFLD  SUNNY     60  51  72 SW9G18    30.30R
$$

VAZ020-022-025-037-045-251400-
WEST CENTRAL AND SOUTHWEST VIRGINIA

CITY           SKY/WX    TMP DP  RH WIND       PRES   REMARKS
STAUNTON*      CLOUDY    58  47  67 S5        30.24S
WAYNESBORO*    CLOUDY    60  49  66 SW5       30.24R
HOT SPRINGS VA CLOUDY    54  41  62 W13G20    30.29R
LYNCHBURG      CLOUDY    56  47  71 S7        30.28S
DANVILLE       MOSUNNY   57  50  77 SW5       30.31S
SOUTH BOSTON*  FAIR      59  49  69 SW9G18    30.30F
MARTINSVILLE   CLOUDY    56  47  71 SW3       30.33S
ROANOKE        MOSUNNY   58  46  64 CALM      30.28S
BLACKSBURG     CLOUDY    54  47  78 CALM      30.33R
DUBLIN*        CLOUDY    53  49  87 SW3       30.31R
MARION*        PTSUNNY   49  47  92 CALM      30.32R
HILLSVILLE*    CLOUDY    52  46  80 CALM      30.29S
RICHLANDS*     CLOUDY    57  45  65 CALM      30.27S
WISE*          MOSUNNY   57  43  58 CALM      30.28S
ABINGDON*      PTSUNNY   55  49  81 E6        30.28S
$$

MDZ021>025-VAZ099-100-251400-
SOUTHERN MARYLAND AND THE DELMARVA PENINSULA

CITY           SKY/WX    TMP DP  RH WIND       PRES   REMARKS
PATUXENT RIVER CLOUDY    61  51  70 SW13      30.22R
BAY BRIDGE APT CLOUDY    61  48  63 SW5       30.19S
LEONARDTOWN    CLOUDY    61  46  59 SW9       30.23S
DOVER          CLOUDY    59  52  76 SW12      30.18R
GEORGETOWN     CLOUDY    61  48  62 SW10      30.21S
EASTON         MOSUNNY   61  48  63 SW9       30.24R
CAMBRIDGE      SUNNY     59  48  67 VRB6      30.22R
SALISBURY      CLOUDY    59  50  72 SW10      30.23R
OCEAN CITY     MOSUNNY   61  49  64 SW12      30.23R
WALLOPS ISLAND CLOUDY    63  50  62 SW12G21   30.25S
ACCOMACK*      CLOUDY    62  50  64 SW16G25   30.26S
$$

NCZ012>017-030>032-251400-
NORTH CENTRAL AND EASTERN NORTH CAROLINA

CITY           SKY/WX    TMP DP  RH WIND       PRES   REMARKS
ROANOKE RAPIDS FAIR      59  52  77 SW9       30.33R
RALEIGH        PTSUNNY   59  52  77 SW8       30.35R
ELIZABETH CITY SUNNY     60  51  72 SW10      30.34R
AHOSKIE*         N/A     60  52  76 CALM      30.33F
EDENTON*       SUNNY     60  51  73 SW7       30.35S
CURRITUCK*     SUNNY     60  50  68 SW10      30.33S
KILL DEVIL HLS NOT AVBL
MANTEO         SUNNY     57  51  79 SW5       30.35S
CAPE HATTERAS  SUNNY     67  53  61 W8        30.37R
TARBORO*       NOT AVBL
GOLDSBORO      SUNNY     59  56  91 SW5       30.34R
WASHINGTON     SUNNY     59  51  73 SW8       30.36R
GREENVILLE     CLOUDY    59  52  77 SW6       30.35S
NEW BERN       SUNNY     62  53  72 SW5       30.37R
WILMINGTON     CLOUDY    63  55  75 CALM      30.36R
$$

VAZ048-251400-
ELSEWHERE

CITY           SKY/WX    TMP DP  RH WIND       PRES   REMARKS
HARRISBURG PA  CLOUDY    47  42  83 CALM      30.15R
BALTIMORE      CLOUDY    61  49  64 SW8       30.18R
ANNAPOLIS      MOSUNNY   64  48  56 W9G17     30.19R
ANDREWS AFB    MOSUNNY   62  47  59 SW13      30.19S
PHILADELPHIA   CLOUDY    56  46  69 SW13      30.17R
HENDERSON NC   SUNNY     57  48  73 SW9       30.32S
GREENSBORO     PTSUNNY   57  50  77 SW8       30.33R
ROCKY MOUNT    SUNNY     58  53  84 S6        30.35R
$$

VAZ100-251400-
MARINE

STATION/POSITION TIME  TEMP    WIND        PRES    WAVE   SWELL
                       AIR SEA DIR/SP/G            HT/PER HT/PER
                 (UTC) (F)     (DEG/KT/KT) (MB)    (FT/S) (FT/S)
CAPE MAY NJ      1248   51 43   90/  1/  2 1022.2R
LEWES DE         1236   61 44  250/  9/ 15 1022.2S
OCEAN-CITY-INLET 1236   49 44  220/ 13/ 14 1023.8R
WACHAPREAGUE VA  1248   62 48  250/  9/ 14 1024.5R
THOMAS POINT MD  1300   60 44  240/ 11/ 11   N/A
GOOSES REEF MD   1300   54 44  240/ 12/ 12 1023.1    1/ 3
COVE POINT MD    1248   61     270/ 22/ 29 1022.9R
SOLOMONS ISLAND  1242   60 46  240/  7/ 12   N/A
BISHOPS HEAD MD  1248   54 47  210/  9/ 11 1024.1R
PINEY POINT MD   1248          270/  6/  7   N/A
POTOMAC MD       1300   54 46  260/  8/ 12 1022.8    1/ 2
CAMBRIDGE MD     1248   58 44  200/  3/  5 1022.5R
LEWISETTA VA     1248   60 48  240/ 15/ 20 1023.3R
RAPPAHANNOCK LGT 1248          190/ 17/ 17 1025.3S
STINGRAY PT      1250   57     250/ 14/ 16 1025.2R
YORK RVR RNG VA  1248   59     260/ 17/ 19 1024.6R
YORKTOWN VA      1248   61 48  240/ 12/ 20 1024.8R
JAMESTOWN VA     1300   59 51  230/ 12/ 19   N/A     1
DOMINION TERM VA 1248   57     250/ 11/ 13 1026.0R
KIPTOPEKE VA     1242      46  220/  8/  9   N/A
CHES BAY BRIDGE  1248   59 47  240/ 19/ 22 1025.5R
CAPE HENRY VA    1248   61     230/ 11/ 19   N/A
WILLOUBY STN VA  1248   57     240/ 17/ 18 1026.4R
S CRANEY ISL VA  1248   61     230/ 11/ 17 1025.8R
CAPE HENRY BUOY  1242      48                N/A     2/ 4
CAPE CHARLES BUO 1251      46                N/A     2/ 4
OFFSHORE WE BUOY 1251      47                N/A     2/ 5
64NM E OF VA BCH 1250   53 50  210/ 12/ 16 1026.9R   3/ 6   2/ 6
DUCK PIER NC     1248   58 47  230/ 10/ 12 1026.8R
44100 DUCK FRF   1235      47                N/A     2/ 5
44056 DUCK FRF   1230      48                N/A     2/11
OREGON INLET NC  1242   55 54  220/  8/  9 1027.7R
HATTERAS NC      1248   62 55  250/  7/  9 1028.0R
DIAMOND SHLS NC  1250   69 76  260/ 14/ 17 1028.1R   4/ 5   2/ 9
CAPE LOOKOUT NC  1200   65     250/  5/  7 1027.3R
$$



USA.gov is the U.S. government's official web portal to all federal, state and local government web resources and services.